![]() |
EMODnet Physics ERDDAP
Easier access to scientific data |
log in|
Brought to you by EMODnet Physics |
| Dataset Title: | NDBC - Collection of dew point temperature (DEWT) TimeSeries - IN SITU MultiPointTimeSeriesObservation
|
| Institution: | NDBC (Dataset ID: TS_DEWT_NDBC) |
| Information: | Summary
| License
| FGDC
| ISO 19115
| Metadata
| Background
| Subset
| Data Access Form
| Make a graph
|
| Name | Last modified | Size | Description | |
|---|---|---|---|---|
| Parent Directory | - | - | ||
| BSBM4_TS_DEWT_012007.nc | 24-Oct-2024 02:38 | 439066 | ||
| BSBM4_TS_DEWT_012008.nc | 24-Oct-2024 03:49 | 587213 | ||
| BSBM4_TS_DEWT_012009.nc | 24-Oct-2024 04:57 | 440291 | ||
| BSBM4_TS_DEWT_012010.nc | 24-Oct-2024 06:09 | 587276 | ||
| BSBM4_TS_DEWT_012011.nc | 24-Oct-2024 07:25 | 587280 | ||
| BSBM4_TS_DEWT_012012.nc | 24-Oct-2024 08:33 | 439639 | ||
| BSBM4_TS_DEWT_012013.nc | 24-Oct-2024 09:38 | 428167 | ||
| BSBM4_TS_DEWT_012014.nc | 24-Oct-2024 10:49 | 587310 | ||
| BSBM4_TS_DEWT_012015.nc | 24-Oct-2024 11:59 | 587254 | ||
| BSBM4_TS_DEWT_012016.nc | 24-Oct-2024 13:09 | 428679 | ||
| BSBM4_TS_DEWT_012017.nc | 24-Oct-2024 14:22 | 439320 | ||
| BSBM4_TS_DEWT_012018.nc | 24-Oct-2024 15:30 | 427375 | ||
| BSBM4_TS_DEWT_012019.nc | 24-Oct-2024 16:42 | 440041 | ||
| BSBM4_TS_DEWT_012020.nc | 24-Oct-2024 17:44 | 440050 | ||
| BSBM4_TS_DEWT_012021.nc | 24-Oct-2024 18:56 | 439503 | ||
| BSBM4_TS_DEWT_012022.nc | 24-Oct-2024 20:05 | 440076 | ||
| BSBM4_TS_DEWT_012024.nc | 24-Oct-2024 21:19 | 439010 | ||
| BSBM4_TS_DEWT_022007.nc | 24-Oct-2024 02:43 | 439160 | ||
| BSBM4_TS_DEWT_022008.nc | 24-Oct-2024 03:54 | 426058 | ||
| BSBM4_TS_DEWT_022009.nc | 24-Oct-2024 05:03 | 440067 | ||
| BSBM4_TS_DEWT_022010.nc | 24-Oct-2024 06:14 | 440043 | ||
| BSBM4_TS_DEWT_022011.nc | 24-Oct-2024 07:31 | 438638 | ||
| BSBM4_TS_DEWT_022012.nc | 24-Oct-2024 08:37 | 423791 | ||
| BSBM4_TS_DEWT_022013.nc | 24-Oct-2024 09:43 | 437090 | ||
| BSBM4_TS_DEWT_022014.nc | 24-Oct-2024 10:55 | 587281 | ||
| BSBM4_TS_DEWT_022015.nc | 24-Oct-2024 12:05 | 587251 | ||
| BSBM4_TS_DEWT_022016.nc | 24-Oct-2024 13:15 | 440161 | ||
| BSBM4_TS_DEWT_022017.nc | 24-Oct-2024 14:27 | 587270 | ||
| BSBM4_TS_DEWT_022018.nc | 24-Oct-2024 15:36 | 587282 | ||
| BSBM4_TS_DEWT_022019.nc | 24-Oct-2024 16:48 | 440041 | ||
| BSBM4_TS_DEWT_022020.nc | 24-Oct-2024 17:50 | 587272 | ||
| BSBM4_TS_DEWT_022021.nc | 24-Oct-2024 19:02 | 587278 | ||
| BSBM4_TS_DEWT_032007.nc | 24-Oct-2024 02:49 | 587262 | ||
| BSBM4_TS_DEWT_032008.nc | 24-Oct-2024 04:01 | 432238 | ||
| BSBM4_TS_DEWT_032009.nc | 24-Oct-2024 05:08 | 425702 | ||
| BSBM4_TS_DEWT_032010.nc | 24-Oct-2024 06:20 | 424091 | ||
| BSBM4_TS_DEWT_032011.nc | 24-Oct-2024 07:36 | 440072 | ||
| BSBM4_TS_DEWT_032012.nc | 24-Oct-2024 08:42 | 439689 | ||
| BSBM4_TS_DEWT_032013.nc | 24-Oct-2024 09:49 | 439557 | ||
| BSBM4_TS_DEWT_032014.nc | 24-Oct-2024 11:02 | 436759 | ||
| BSBM4_TS_DEWT_032015.nc | 24-Oct-2024 12:10 | 439408 | ||
| BSBM4_TS_DEWT_032016.nc | 24-Oct-2024 13:21 | 439030 | ||
| BSBM4_TS_DEWT_032017.nc | 24-Oct-2024 14:32 | 440023 | ||
| BSBM4_TS_DEWT_032018.nc | 24-Oct-2024 15:43 | 426226 | ||
| BSBM4_TS_DEWT_032019.nc | 24-Oct-2024 16:52 | 439770 | ||
| BSBM4_TS_DEWT_032020.nc | 24-Oct-2024 17:55 | 428957 | ||
| BSBM4_TS_DEWT_032021.nc | 24-Oct-2024 19:08 | 438686 | ||
| BSBM4_TS_DEWT_042007.nc | 24-Oct-2024 02:55 | 436488 | ||
| BSBM4_TS_DEWT_042008.nc | 24-Oct-2024 04:08 | 586998 | ||
| BSBM4_TS_DEWT_042009.nc | 24-Oct-2024 05:12 | 437634 | ||
| BSBM4_TS_DEWT_042010.nc | 24-Oct-2024 06:26 | 439871 | ||
| BSBM4_TS_DEWT_042011.nc | 24-Oct-2024 07:42 | 438880 | ||
| BSBM4_TS_DEWT_042012.nc | 24-Oct-2024 08:47 | 435012 | ||
| BSBM4_TS_DEWT_042013.nc | 24-Oct-2024 09:56 | 435293 | ||
| BSBM4_TS_DEWT_042014.nc | 24-Oct-2024 11:07 | 440169 | ||
| BSBM4_TS_DEWT_042015.nc | 24-Oct-2024 12:17 | 587142 | ||
| BSBM4_TS_DEWT_042016.nc | 24-Oct-2024 13:26 | 422663 | ||
| BSBM4_TS_DEWT_042017.nc | 24-Oct-2024 14:38 | 435015 | ||
| BSBM4_TS_DEWT_042018.nc | 24-Oct-2024 15:48 | 437224 | ||
| BSBM4_TS_DEWT_042019.nc | 24-Oct-2024 16:56 | 1153398 | ||
| BSBM4_TS_DEWT_042020.nc | 24-Oct-2024 18:00 | 429707 | ||
| BSBM4_TS_DEWT_042021.nc | 24-Oct-2024 19:14 | 1625716 | ||
| BSBM4_TS_DEWT_052007.nc | 24-Oct-2024 03:01 | 1625207 | ||
| BSBM4_TS_DEWT_052008.nc | 24-Oct-2024 04:13 | 1627568 | ||
| BSBM4_TS_DEWT_052009.nc | 24-Oct-2024 05:18 | 1478299 | ||
| BSBM4_TS_DEWT_052010.nc | 24-Oct-2024 06:34 | 1627798 | ||
| BSBM4_TS_DEWT_052011.nc | 24-Oct-2024 07:48 | 1149061 | ||
| BSBM4_TS_DEWT_052012.nc | 24-Oct-2024 08:53 | 1627762 | ||
| BSBM4_TS_DEWT_052013.nc | 24-Oct-2024 10:03 | 1627353 | ||
| BSBM4_TS_DEWT_052014.nc | 24-Oct-2024 11:15 | 1834154 | ||
| BSBM4_TS_DEWT_052015.nc | 24-Oct-2024 12:23 | 1834713 | ||
| BSBM4_TS_DEWT_052016.nc | 24-Oct-2024 13:32 | 1834076 | ||
| BSBM4_TS_DEWT_052017.nc | 24-Oct-2024 14:43 | 1828847 | ||
| BSBM4_TS_DEWT_052018.nc | 24-Oct-2024 15:55 | 1829740 | ||
| BSBM4_TS_DEWT_052019.nc | 24-Oct-2024 17:00 | 1830278 | ||
| BSBM4_TS_DEWT_052020.nc | 24-Oct-2024 18:05 | 1835906 | ||
| BSBM4_TS_DEWT_052021.nc | 24-Oct-2024 19:19 | 1834448 | ||
| BSBM4_TS_DEWT_052022.nc | 24-Oct-2024 20:11 | 1834897 | ||
| BSBM4_TS_DEWT_062006.nc | 24-Oct-2024 01:59 | 1285747 | ||
| BSBM4_TS_DEWT_062007.nc | 24-Oct-2024 03:06 | 4963898 | ||
| BSBM4_TS_DEWT_062008.nc | 24-Oct-2024 04:19 | 3727522 | ||
| BSBM4_TS_DEWT_062009.nc | 24-Oct-2024 05:25 | 1151237 | ||
| BSBM4_TS_DEWT_062010.nc | 24-Oct-2024 06:40 | 910977 | ||
| BSBM4_TS_DEWT_062011.nc | 24-Oct-2024 07:53 | 1464847 | ||
| BSBM4_TS_DEWT_062012.nc | 24-Oct-2024 08:58 | 1473121 | ||
| BSBM4_TS_DEWT_062013.nc | 24-Oct-2024 10:09 | 1470473 | ||
| BSBM4_TS_DEWT_062014.nc | 24-Oct-2024 11:22 | 1468892 | ||
| BSBM4_TS_DEWT_062015.nc | 24-Oct-2024 12:29 | 1470734 | ||
| BSBM4_TS_DEWT_062016.nc | 24-Oct-2024 13:37 | 1161107 | ||
| BSBM4_TS_DEWT_062017.nc | 24-Oct-2024 14:49 | 1470876 | ||
| BSBM4_TS_DEWT_062018.nc | 24-Oct-2024 16:01 | 1470600 | ||
| BSBM4_TS_DEWT_062019.nc | 24-Oct-2024 17:05 | 1649006 | ||
| BSBM4_TS_DEWT_062020.nc | 24-Oct-2024 18:11 | 1667627 | ||
| BSBM4_TS_DEWT_062021.nc | 24-Oct-2024 19:25 | 1658019 | ||
| BSBM4_TS_DEWT_062022.nc | 24-Oct-2024 20:17 | 1660418 | ||
| BSBM4_TS_DEWT_072006.nc | 24-Oct-2024 02:06 | 1657222 | ||
| BSBM4_TS_DEWT_072007.nc | 24-Oct-2024 03:11 | 1669007 | ||
| BSBM4_TS_DEWT_072008.nc | 24-Oct-2024 04:24 | 1654861 | ||
| BSBM4_TS_DEWT_072009.nc | 24-Oct-2024 05:32 | 1656974 | ||
| BSBM4_TS_DEWT_072010.nc | 24-Oct-2024 06:45 | 1655719 | ||
| BSBM4_TS_DEWT_072011.nc | 24-Oct-2024 07:59 | 422800 | ||
| BSBM4_TS_DEWT_072012.nc | 24-Oct-2024 09:04 | 3368716 | ||
| BSBM4_TS_DEWT_072013.nc | 24-Oct-2024 10:15 | 4828966 | ||
| BSBM4_TS_DEWT_072014.nc | 24-Oct-2024 11:27 | 1152071 | ||
| BSBM4_TS_DEWT_072015.nc | 24-Oct-2024 12:36 | 1626457 | ||
| BSBM4_TS_DEWT_072016.nc | 24-Oct-2024 13:43 | 1469045 | ||
| BSBM4_TS_DEWT_072017.nc | 24-Oct-2024 14:55 | 1478464 | ||
| BSBM4_TS_DEWT_072018.nc | 24-Oct-2024 16:06 | 1627637 | ||
| BSBM4_TS_DEWT_072019.nc | 24-Oct-2024 17:10 | 1625208 | ||
| BSBM4_TS_DEWT_072020.nc | 24-Oct-2024 18:17 | 1625287 | ||
| BSBM4_TS_DEWT_072021.nc | 24-Oct-2024 19:31 | 1627555 | ||
| BSBM4_TS_DEWT_072022.nc | 24-Oct-2024 20:24 | 1626950 | ||
| BSBM4_TS_DEWT_082006.nc | 24-Oct-2024 02:11 | 1708621 | ||
| BSBM4_TS_DEWT_082007.nc | 24-Oct-2024 03:17 | 1671699 | ||
| BSBM4_TS_DEWT_082008.nc | 24-Oct-2024 04:30 | 1821939 | ||
| BSBM4_TS_DEWT_082009.nc | 24-Oct-2024 05:39 | 1829533 | ||
| BSBM4_TS_DEWT_082010.nc | 24-Oct-2024 06:50 | 1833275 | ||
| BSBM4_TS_DEWT_082011.nc | 24-Oct-2024 08:06 | 1826723 | ||
| BSBM4_TS_DEWT_082012.nc | 24-Oct-2024 09:10 | 1815821 | ||
| BSBM4_TS_DEWT_082013.nc | 24-Oct-2024 10:21 | 1216368 | ||
| BSBM4_TS_DEWT_082014.nc | 24-Oct-2024 11:33 | 1834684 | ||
| BSBM4_TS_DEWT_082015.nc | 24-Oct-2024 12:41 | 1840160 | ||
| BSBM4_TS_DEWT_082016.nc | 24-Oct-2024 13:50 | 4578298 | ||
| BSBM4_TS_DEWT_082017.nc | 24-Oct-2024 15:00 | 3326235 | ||
| BSBM4_TS_DEWT_082018.nc | 24-Oct-2024 16:11 | 1162078 | ||
| BSBM4_TS_DEWT_082019.nc | 24-Oct-2024 17:15 | 1476308 | ||
| BSBM4_TS_DEWT_082020.nc | 24-Oct-2024 18:24 | 1466948 | ||
| BSBM4_TS_DEWT_082021.nc | 24-Oct-2024 19:36 | 1477620 | ||
| BSBM4_TS_DEWT_082022.nc | 24-Oct-2024 20:30 | 1474084 | ||
| BSBM4_TS_DEWT_092006.nc | 24-Oct-2024 02:16 | 1477867 | ||
| BSBM4_TS_DEWT_092007.nc | 24-Oct-2024 03:25 | 1477962 | ||
| BSBM4_TS_DEWT_092008.nc | 24-Oct-2024 04:36 | 1477880 | ||
| BSBM4_TS_DEWT_092009.nc | 24-Oct-2024 05:45 | 1477691 | ||
| BSBM4_TS_DEWT_092010.nc | 24-Oct-2024 06:56 | 1676656 | ||
| BSBM4_TS_DEWT_092011.nc | 24-Oct-2024 08:12 | 1668747 | ||
| BSBM4_TS_DEWT_092012.nc | 24-Oct-2024 09:16 | 1667569 | ||
| BSBM4_TS_DEWT_092013.nc | 24-Oct-2024 10:27 | 1676508 | ||
| BSBM4_TS_DEWT_092014.nc | 24-Oct-2024 11:38 | 1682473 | ||
| BSBM4_TS_DEWT_092015.nc | 24-Oct-2024 12:47 | 1647899 | ||
| BSBM4_TS_DEWT_092016.nc | 24-Oct-2024 13:57 | 1671085 | ||
| BSBM4_TS_DEWT_092017.nc | 24-Oct-2024 15:05 | 1674856 | ||
| BSBM4_TS_DEWT_092018.nc | 24-Oct-2024 16:17 | 1678009 | ||
| BSBM4_TS_DEWT_092019.nc | 24-Oct-2024 17:22 | 1678954 | ||
| BSBM4_TS_DEWT_092020.nc | 24-Oct-2024 18:31 | 4828188 | ||
| BSBM4_TS_DEWT_092021.nc | 24-Oct-2024 19:42 | 1164956 | ||
| BSBM4_TS_DEWT_092022.nc | 24-Oct-2024 20:36 | 1626983 | ||
| BSBM4_TS_DEWT_092023.nc | 24-Oct-2024 20:54 | 1625964 | ||
| BSBM4_TS_DEWT_102006.nc | 24-Oct-2024 02:22 | 1478371 | ||
| BSBM4_TS_DEWT_102007.nc | 24-Oct-2024 03:30 | 1627549 | ||
| BSBM4_TS_DEWT_102008.nc | 24-Oct-2024 04:42 | 1627820 | ||
| BSBM4_TS_DEWT_102009.nc | 24-Oct-2024 05:51 | 997591 | ||
| BSBM4_TS_DEWT_102010.nc | 24-Oct-2024 07:03 | 1627795 | ||
| BSBM4_TS_DEWT_102011.nc | 24-Oct-2024 08:17 | 1478217 | ||
| BSBM4_TS_DEWT_102012.nc | 24-Oct-2024 09:22 | 1833834 | ||
| BSBM4_TS_DEWT_102013.nc | 24-Oct-2024 10:32 | 1682959 | ||
| BSBM4_TS_DEWT_102014.nc | 24-Oct-2024 11:44 | 1788868 | ||
| BSBM4_TS_DEWT_102015.nc | 24-Oct-2024 12:52 | 1834436 | ||
| BSBM4_TS_DEWT_102016.nc | 24-Oct-2024 14:02 | 1671171 | ||
| BSBM4_TS_DEWT_102017.nc | 24-Oct-2024 15:12 | 1838007 | ||
| BSBM4_TS_DEWT_102018.nc | 24-Oct-2024 16:23 | 1826626 | ||
| BSBM4_TS_DEWT_102019.nc | 24-Oct-2024 17:26 | 1830803 | ||
| BSBM4_TS_DEWT_102020.nc | 24-Oct-2024 18:37 | 1830340 | ||
| BSBM4_TS_DEWT_102021.nc | 24-Oct-2024 19:48 | 1837701 | ||
| BSBM4_TS_DEWT_102022.nc | 24-Oct-2024 20:42 | 5559797 | ||
| BSBM4_TS_DEWT_102023.nc | 24-Oct-2024 21:00 | 1152669 | ||
| BSBM4_TS_DEWT_112006.nc | 24-Oct-2024 02:28 | 1476562 | ||
| BSBM4_TS_DEWT_112007.nc | 24-Oct-2024 03:36 | 1459794 | ||
| BSBM4_TS_DEWT_112008.nc | 24-Oct-2024 04:47 | 1475393 | ||
| BSBM4_TS_DEWT_112009.nc | 24-Oct-2024 05:57 | 1477916 | ||
| BSBM4_TS_DEWT_112010.nc | 24-Oct-2024 07:11 | 1470500 | ||
| BSBM4_TS_DEWT_112011.nc | 24-Oct-2024 08:23 | 915311 | ||
| BSBM4_TS_DEWT_112012.nc | 24-Oct-2024 09:27 | 1477849 | ||
| BSBM4_TS_DEWT_112013.nc | 24-Oct-2024 10:38 | 1477317 | ||
| BSBM4_TS_DEWT_112014.nc | 24-Oct-2024 11:49 | 1678143 | ||
| BSBM4_TS_DEWT_112015.nc | 24-Oct-2024 12:57 | 1678823 | ||
| BSBM4_TS_DEWT_112016.nc | 24-Oct-2024 14:08 | 1635505 | ||
| BSBM4_TS_DEWT_112017.nc | 24-Oct-2024 15:18 | 1674924 | ||
| BSBM4_TS_DEWT_112018.nc | 24-Oct-2024 16:29 | 1678894 | ||
| BSBM4_TS_DEWT_112019.nc | 24-Oct-2024 17:33 | 1674422 | ||
| BSBM4_TS_DEWT_112020.nc | 24-Oct-2024 18:43 | 1679927 | ||
| BSBM4_TS_DEWT_112021.nc | 24-Oct-2024 19:54 | 1615347 | ||
| BSBM4_TS_DEWT_112022.nc | 24-Oct-2024 20:48 | 1676402 | ||
| BSBM4_TS_DEWT_112023.nc | 24-Oct-2024 21:06 | 1674448 | ||
| BSBM4_TS_DEWT_122006.nc | 24-Oct-2024 02:33 | 5515811 | ||
| BSBM4_TS_DEWT_122007.nc | 24-Oct-2024 03:42 | 429266 | ||
| BSBM4_TS_DEWT_122008.nc | 24-Oct-2024 04:52 | 1626830 | ||
| BSBM4_TS_DEWT_122009.nc | 24-Oct-2024 06:03 | 1626425 | ||
| BSBM4_TS_DEWT_122010.nc | 24-Oct-2024 07:18 | 1627775 | ||
| BSBM4_TS_DEWT_122011.nc | 24-Oct-2024 08:28 | 1627779 | ||
| BSBM4_TS_DEWT_122012.nc | 24-Oct-2024 09:33 | 1627697 | ||
| BSBM4_TS_DEWT_122013.nc | 24-Oct-2024 10:43 | 912693 | ||
| BSBM4_TS_DEWT_122014.nc | 24-Oct-2024 11:54 | 1627409 | ||
| BSBM4_TS_DEWT_122015.nc | 24-Oct-2024 13:03 | 1627158 | ||
| BSBM4_TS_DEWT_122016.nc | 24-Oct-2024 14:15 | 1832286 | ||
| BSBM4_TS_DEWT_122017.nc | 24-Oct-2024 15:24 | 1822174 | ||
| BSBM4_TS_DEWT_122018.nc | 24-Oct-2024 16:36 | 1650033 | ||
| BSBM4_TS_DEWT_122019.nc | 24-Oct-2024 17:39 | 1656789 | ||
| BSBM4_TS_DEWT_122020.nc | 24-Oct-2024 18:49 | 1829734 | ||
| BSBM4_TS_DEWT_122021.nc | 24-Oct-2024 20:00 | 1826092 | ||
| BSBM4_TS_DEWT_122023.nc | 24-Oct-2024 21:13 | 1650340 | ||